Tracking 18852 objects as of 24-Nov-2017
HD Live streaming from Space Station
objects crossing your sky now

COSMOS 2294 (GLONASS)

Track COSMOS 2294 (GLONASS) now!
COSMOS 2294 (GLONASS) is classified as:


NORAD ID: 23398
Int'l Code: 1994-076C
Perigee: 19,126.7 km
Apogee: 19,147.3 km
Inclination: 64.0 °
Period: 675.7 minutes
Semi major axis: 25508 km
RCS: 1.9393 m2 (large)
Launch date: November 20, 1994
Source: Commonwealth of Independent States (former USSR) (CIS)
Launch site: TYURATAM MISSILE AND SPACE COMPLEX (TTMTR)
SV:
aabbcc
Your satellite tracking list
Your tracking list is empty




NASA's NSSDC Master Catalog

Two Line Element Set (TLE):
1 23398U 94076C   17327.57196472  .00000064  00000-0  00000+0 0  9991
2 23398  63.9550 176.8623 0004044  25.7861  60.4712  2.13102268179090
Source of the keplerian elements: AFSPC